GW3010 Weather Reports


time (UTC)temp
F
wind
direction
speed
knots
gust
knots
rain 1hr
in
rain 24hr
in
rain mn
in
humidity
%
barometer
mb
20260506105009 53 142 0.0 0.0 0.00 0.00 0.00 92 1019.3
20260506104507 53 142 0.0 0.0 0.00 0.00 0.00 92 1019.0
20260506104005 54 138 0.0 0.0 0.00 0.00 0.00 92 1019.1
20260506103501 54 143 0.0 0.0 0.00 0.00 0.00 92 1019.2
20260506102958 54 142 0.0 0.9 0.00 0.00 0.00 92 1019.1
20260506102456 54 145 0.9 0.9 0.00 0.00 0.00 92 1019.0
20260506101953 54 147 0.0 0.9 0.00 0.00 0.00 92 1019.0
20260506101450 54 145 0.0 0.0 0.00 0.00 0.00 92 1019.0
20260506100947 54 143 0.0 0.0 0.00 0.00 0.00 92 1019.0
20260506100446 54 143 0.0 0.0 0.00 0.00 0.00 92 1019.0
20260506095943 54 145 0.0 0.0 0.00 0.00 0.00 91 1019.1
20260506095442 54 144 0.0 0.0 0.00 0.00 0.00 91 1019.1
20260506094937 54 145 0.0 0.9 0.00 0.00 0.00 91 1019.2
20260506094436 54 145 0.0 0.9 0.00 0.00 0.00 91 1019.0
20260506093933 54 145 0.0 0.0 0.00 0.00 0.00 91 1019.0
20260506093431 54 146 0.0 0.9 0.00 0.00 0.00 91 1019.2
20260506092928 54 142 0.0 0.9 0.00 0.00 0.00 91 1018.8
20260506092426 54 145 0.0 0.9 0.00 0.00 0.00 91 1018.9
20260506091923 54 141 0.0 0.0 0.00 0.00 0.00 90 1018.9
20260506091421 54 142 0.0 0.9 0.00 0.00 0.00 90 1019.0
20260506090918 54 141 0.0 0.9 0.00 0.00 0.00 90 1019.1
20260506090415 54 142 0.0 0.0 0.00 0.00 0.00 90 1018.8
20260506085912 55 145 0.0 0.9 0.00 0.00 0.00 90 1019.0
20260506085409 55 144 0.0 0.9 0.00 0.00 0.00 90 1018.9
20260506084905 55 150 0.9 0.9 0.00 0.00 0.00 89 1019.0
20260506084402 55 147 0.9 1.7 0.00 0.00 0.00 89 1019.1
20260506083858 55 143 0.0 0.9 0.00 0.00 0.00 89 1019.1
20260506083356 55 153 0.0 1.7 0.00 0.00 0.00 89 1018.9
20260506082853 55 150 0.9 1.7 0.00 0.00 0.00 89 1019.0
20260506082349 55 144 0.0 2.6 0.00 0.00 0.00 89 1019.1
20260506081845 55 144 0.9 1.7 0.00 0.00 0.00 89 1019.0
20260506081343 55 143 0.0 1.7 0.00 0.00 0.00 89 1019.1
20260506080835 55 145 0.9 0.9 0.00 0.00 0.00 89 1019.0
20260506080331 55 144 0.0 1.7 0.00 0.00 0.00 89 1019.2
20260506073316 55 141 0.0 0.9 0.00 0.00 0.00 88 1018.8
20260506072812 55 155 0.0 1.7 0.00 0.00 0.00 88 1018.8
20260506072310 55 145 0.0 0.9 0.00 0.00 0.00 88 1018.9
20260506071808 55 145 0.0 0.9 0.00 0.00 0.00 88 1018.8
20260506071306 55 148 0.9 2.6 0.00 0.00 0.00 88 1018.6
20260506070802 55 143 0.9 1.7 0.00 0.00 0.00 88 1018.6
20260506070259 55 140 0.0 0.9 0.00 0.00 0.00 88 1018.8
20260506062236 55 195 0.9 1.7 0.00 0.10 0.10 89 1018.4
20260506061732 55 211 0.9 1.7 0.00 0.10 0.10 89 1018.3
20260506061230 55 177 0.0 0.9 0.00 0.10 0.10 88 1018.4
20260506060728 56 182 0.9 2.6 0.00 0.10 0.10 88 1018.4
20260506060225 56 198 0.9 0.9 0.00 0.10 0.10 88 1018.2
20260506051157 56 179 0.0 2.6 0.00 0.10 0.10 87 1017.9
20260506050655 56 185 0.9 1.7 0.00 0.10 0.10 87 1017.9
20260506050152 56 179 0.0 0.9 0.00 0.10 0.10 87 1018.0
20260506044643 56 195 0.0 1.7 0.00 0.10 0.10 88 1017.6
20260506044140 56 185 0.9 2.6 0.00 0.10 0.10 89 1017.6
20260506043637 56 200 0.9 1.7 0.00 0.10 0.10 89 1017.9
20260506043135 56 177 0.0 2.6 0.00 0.10 0.10 89 1017.9
20260506042634 56 190 0.0 0.9 0.00 0.10 0.10 89 1017.8
20260506042131 56 204 0.9 1.7 0.00 0.10 0.10 89 1017.4
20260506041630 56 182 0.9 2.6 0.00 0.10 0.10 88 1017.6
20260506041126 56 165 1.7 1.7 0.00 0.10 0.10 88 1017.4
20260506040624 56 167 0.9 1.7 0.00 0.10 0.10 88 1017.4
20260506040120 56 194 0.9 2.6 0.00 0.10 0.10 88 1017.1
20260506035617 56 185 0.0 0.9 0.00 0.10 0.10 88 1017.0
20260506035114 56 228 0.0 1.7 0.00 0.10 0.10 87 1017.0
20260506034611 56 202 0.9 2.6 0.00 0.10 0.10 87 1016.8
20260506034108 56 183 0.9 3.5 0.00 0.10 0.10 87 1016.9
20260506033605 56 199 0.9 1.7 0.00 0.10 0.10 87 1016.8
20260506033102 56 188 0.9 2.6 0.00 0.10 0.10 87 1016.6
20260506032600 56 235 0.9 0.9 0.00 0.10 0.10 87 1016.6
20260506032056 57 194 0.9 1.7 0.00 0.10 0.10 87 1016.7
20260506031554 57 176 0.0 1.7 0.00 0.10 0.10 86 1016.6
20260506031050 57 205 0.9 1.7 0.00 0.10 0.10 86 1016.6
20260506030549 57 207 1.7 2.6 0.00 0.10 0.10 86 1016.4
20260506030046 57 168 0.0 0.9 0.00 0.10 0.10 86 1016.6
20260506025543 57 251 2.6 3.5 0.00 0.10 0.10 86 1016.5
20260506025038 57 191 0.9 2.6 0.00 0.10 0.10 86 1016.3
20260506024536 57 180 0.0 1.7 0.00 0.10 0.10 85 1016.3
20260506024032 58 168 0.9 1.7 0.00 0.10 0.10 85 1016.3
20260506023528 58 292 0.9 3.5 0.00 0.10 0.10 85 1016.5
20260506023026 58 199 0.9 2.6 0.00 0.10 0.10 84 1016.1
20260506022523 58 214 1.7 1.7 0.00 0.10 0.10 84 1016.0
20260506022021 58 185 1.7 3.5 0.00 0.10 0.10 83 1015.8
20260506021518 59 159 1.7 3.5 0.00 0.10 0.10 83 1015.9
20260506021015 59 220 1.7 2.6 0.00 0.10 0.10 82 1016.1
20260506020513 60 256 0.9 1.7 0.00 0.10 0.10 81 1016.2
20260506020010 60 187 0.9 1.7 0.00 0.10 0.10 81 1015.7
20260506015507 60 209 0.9 1.7 0.00 0.10 0.10 80 1015.9
20260506015004 60 64 0.9 0.9 0.00 0.10 0.10 80 1015.8
20260506014502 60 188 1.7 2.6 0.00 0.10 0.10 79 1016.0
20260506013957 61 167 1.7 3.5 0.00 0.10 0.10 77 1015.9
20260506013455 62 250 0.9 2.6 0.00 0.10 0.10 77 1016.1
20260506012951 61 207 0.9 5.2 0.00 0.10 0.10 77 1016.1
20260506012448 61 166 0.9 2.6 0.00 0.10 0.10 77 1016.1
20260506011945 62 202 0.9 2.6 0.00 0.10 0.10 77 1015.8
20260506011442 62 191 2.6 3.5 0.00 0.10 0.10 75 1015.8
20260506010939 62 281 1.7 2.6 0.00 0.10 0.10 75 1015.9
20260506010438 62 221 1.7 2.6 0.00 0.10 0.10 75 1016.0
20260506005933 63 228 0.9 3.5 0.00 0.10 0.10 76 1015.9
20260506005432 63 210 3.5 5.2 0.00 0.10 0.10 75 1016.0
20260506004926 63 130 0.0 2.6 0.00 0.10 0.10 75 1015.8
20260506004425 63 145 0.9 2.6 0.00 0.10 0.10 74 1015.7
20260506003920 63 168 0.9 2.6 0.00 0.10 0.10 75 1015.7
20260506003417 63 233 0.9 3.5 0.00 0.10 0.10 76 1015.8
20260506002914 62 231 1.7 3.5 0.00 0.10 0.10 76 1015.8
20260506002410 63 341 1.7 3.5 0.00 0.10 0.10 76 1015.6
20260506001905 62 221 1.7 3.5 0.00 0.10 0.10 78 1015.8
20260506001403 62 226 1.7 2.6 0.00 0.10 0.10 78 1015.4
20260506000900 62 189 1.7 2.6 0.00 0.10 0.10 78 1015.5
20260506000358 62 202 2.6 6.1 0.00 0.10 0.10 76 1015.8
20260505235854 63 248 1.7 3.5 0.00 0.10 0.10 76 1015.8
20260505235352 62 204 0.9 1.7 0.00 0.10 0.10 76 1015.5
20260505234848 62 176 0.9 3.5 0.00 0.10 0.10 75 1015.6
20260505234346 62 186 0.9 3.5 0.00 0.10 0.10 76 1015.6
20260505233842 62 206 1.7 3.5 0.00 0.10 0.10 75 1015.6
20260505233341 62 224 1.7 2.6 0.00 0.10 0.10 75 1015.7
20260505232838 63 259 3.5 5.2 0.00 0.10 0.10 75 1015.7
20260505232336 63 114 0.0 2.6 0.00 0.10 0.10 75 1015.7
20260505231832 63 224 0.9 2.6 0.00 0.10 0.10 75 1015.6
20260505231330 63 252 1.7 5.2 0.00 0.10 0.10 74 1015.6
20260505230828 63 184 1.7 3.5 0.00 0.10 0.10 73 1015.5
20260505230325 64 190 1.7 3.5 0.00 0.10 0.10 73 1015.4
20260505225821 64 161 0.9 5.2 0.00 0.10 0.10 72 1015.5
20260505225319 64 212 1.7 2.6 0.00 0.10 0.10 74 1015.6
20260505224813 64 206 1.7 5.2 0.00 0.10 0.10 74 1015.5
20260505224312 63 239 2.6 3.5 0.00 0.10 0.10 75 1015.5
20260505223808 62 182 1.7 5.2 0.00 0.10 0.10 76 1015.6
20260505223306 63 198 0.9 5.2 0.00 0.10 0.10 77 1015.5
20260505222801 63 192 1.7 2.6 0.00 0.10 0.10 76 1015.7
20260505222257 63 198 0.9 3.5 0.00 0.10 0.10 76 1015.8
20260505221755 64 201 2.6 5.2 0.00 0.10 0.10 74 1015.8
20260505221251 64 211 1.7 2.6 0.00 0.10 0.10 75 1015.9
20260505220748 64 194 1.7 5.2 0.00 0.10 0.10 74 1015.8
20260505220245 63 174 0.9 3.5 0.00 0.10 0.10 76 1015.8
20260505215744 63 252 1.7 3.5 0.00 0.10 0.10 76 1015.9
20260505215241 63 167 1.7 6.1 0.00 0.10 0.10 75 1015.9
20260505214739 63 174 0.9 2.6 0.00 0.10 0.10 75 1015.9
20260505214236 64 180 1.7 2.6 0.00 0.10 0.10 74 1015.9
20260505213733 64 199 1.7 5.2 0.00 0.10 0.10 74 1016.2
20260505213230 64 163 0.9 1.7 0.00 0.10 0.10 74 1016.0
20260505212726 64 179 0.9 5.2 0.00 0.10 0.10 73 1016.2
20260505212224 65 108 1.7 3.5 0.00 0.10 0.10 73 1016.1
20260505211721 64 155 1.7 3.5 0.00 0.10 0.10 73 1016.1
20260505211218 64 231 1.7 5.2 0.00 0.10 0.10 74 1016.3
20260505210714 64 195 0.9 1.7 0.00 0.10 0.10 74 1016.2
20260505210211 63 187 0.9 1.7 0.00 0.10 0.10 75 1016.0
20260505205709 64 131 1.7 2.6 0.00 0.10 0.10 74 1016.1
20260505205207 64 249 1.7 3.5 0.00 0.10 0.10 74 1016.3
20260505204703 64 218 0.9 2.6 0.00 0.10 0.10 74 1016.3
20260505204201 64 139 1.7 3.5 0.00 0.10 0.10 74 1016.0
20260505203658 65 147 0.0 2.6 0.00 0.10 0.10 73 1016.0
20260505203154 65 199 1.7 2.6 0.00 0.10 0.10 72 1016.0
20260505202650 65 178 0.0 5.2 0.00 0.10 0.10 72 1016.1
20260505202147 64 194 1.7 2.6 0.00 0.10 0.10 72 1016.5
20260505201643 64 197 1.7 3.5 0.00 0.10 0.10 72 1016.2
20260505201141 66 182 0.9 3.5 0.00 0.10 0.10 70 1016.3
20260505200639 67 206 1.7 2.6 0.00 0.10 0.10 68 1016.1
20260505200136 66 167 0.9 2.6 0.00 0.10 0.10 71 1016.1
20260505195632 65 153 1.7 2.6 0.00 0.10 0.10 70 1016.3
20260505195129 65 208 1.7 6.1 0.00 0.10 0.10 70 1016.2
20260505194626 65 252 0.9 5.2 0.00 0.10 0.10 70 1016.3
20260505194122 65 253 1.7 2.6 0.00 0.10 0.10 70 1016.2
20260505193619 64 235 0.9 5.2 0.00 0.10 0.10 71 1016.2
20260505193116 64 232 1.7 2.6 0.00 0.10 0.10 73 1016.4
20260505192615 64 230 2.6 5.2 0.00 0.10 0.10 72 1016.5
20260505192112 64 197 0.9 2.6 0.00 0.10 0.10 73 1016.3
20260505191610 64 166 0.9 3.5 0.00 0.10 0.10 73 1016.5
20260505191107 65 330 0.9 3.5 0.00 0.10 0.10 73 1016.4
20260505190603 64 0 1.7 5.2 0.00 0.10 0.10 74 1016.1
20260505190058 62 228 0.9 3.5 0.00 0.10 0.10 76 1016.2
20260505185555 62 223 1.7 3.5 0.00 0.10 0.10 76 1016.3
20260505185052 62 272 0.9 3.5 0.00 0.10 0.10 76 1016.1
20260505184548 62 279 2.6 3.5 0.00 0.10 0.10 76 1016.1
20260505184045 62 253 0.9 3.5 0.00 0.10 0.10 76 1016.4
20260505183542 62 159 0.9 2.6 0.00 0.10 0.10 76 1016.3
20260505183039 63 226 0.9 2.6 0.00 0.10 0.10 76 1016.3
20260505182535 63 178 1.7 2.6 0.00 0.10 0.10 76 1016.2
20260505182032 62 189 0.9 2.6 0.00 0.10 0.10 77 1016.1
20260505181529 62 350 2.6 5.2 0.00 0.10 0.10 76 1016.2
20260505181027 63 236 2.6 2.6 0.00 0.10 0.10 77 1016.3
20260505180522 62 204 2.6 2.6 0.00 0.10 0.10 79 1016.0
20260505180020 61 151 0.0 1.7 0.00 0.10 0.10 80 1015.9
20260505175515 60 196 0.9 2.6 0.00 0.10 0.10 81 1016.0
20260505175012 60 205 1.7 1.7 0.00 0.10 0.10 84 1016.0
20260505174509 59 203 0.9 1.7 0.00 0.10 0.10 85 1015.9
20260505174005 59 207 2.6 3.5 0.00 0.10 0.10 86 1015.7
20260505173502 58 194 0.0 1.7 0.00 0.10 0.10 87 1015.9
20260505172958 58 207 0.9 2.6 0.00 0.10 0.10 88 1015.9
20260505172456 57 212 0.9 1.7 0.00 0.10 0.10 88 1016.0
20260505171951 57 282 2.6 5.2 0.00 0.10 0.10 88 1015.9
20260505171447 57 180 0.9 1.7 0.00 0.10 0.10 89 1015.8
20260505170944 57 186 0.9 2.6 0.00 0.10 0.10 89 1015.8
20260505170441 57 180 0.9 2.6 0.00 0.10 0.10 90 1015.8
20260505165936 57 221 0.9 1.7 0.00 0.10 0.10 90 1015.9
20260505165432 57 216 1.7 1.7 0.00 0.10 0.10 91 1015.8
20260505164928 56 186 0.9 3.5 0.00 0.10 0.10 91 1015.7
20260505164425 56 303 1.7 2.6 0.00 0.10 0.10 92 1015.9
20260505163923 56 182 0.9 0.9 0.00 0.10 0.10 92 1016.0
20260505163422 56 190 0.9 2.6 0.00 0.10 0.10 92 1015.9
20260505162920 56 184 0.9 3.5 0.00 0.10 0.10 93 1015.8
20260505162415 56 197 0.0 0.9 0.00 0.10 0.10 93 1015.7
20260505161913 56 194 0.0 1.7 0.00 0.10 0.10 93 1015.8
20260505161409 55 237 0.9 1.7 0.07 0.10 0.10 94 1015.7
20260505160907 55 192 0.0 1.7 0.07 0.10 0.10 94 1015.7
20260505160405 55 193 0.9 1.7 0.00 0.09 0.09 94 1015.7
20260505153343 54 236 0.9 1.7 0.00 0.09 0.09 94 1015.4
20260505152840 54 170 0.0 0.9 0.00 0.09 0.09 94 1015.5
20260505152337 54 180 0.9 3.5 0.00 0.09 0.09 94 1015.4
20260505151832 54 192 1.7 2.6 0.00 0.09 0.09 93 1015.4
20260505151328 54 212 1.7 2.6 0.00 0.09 0.09 93 1015.4
20260505150825 55 201 0.0 1.7 0.00 0.09 0.09 93 1015.1
20260505150322 55 172 0.0 0.9 0.00 0.09 0.09 93 1015.1
20260505140247 53 172 0.0 0.0 0.00 0.09 0.09 93 1014.8
20260505130211 52 165 0.0 0.0 0.00 0.09 0.09 94 1014.4
20260505124701 52 161 0.0 0.0 0.00 0.09 0.09 94 1014.8
20260505124157 52 170 0.0 0.0 0.00 0.09 0.09 94 1014.9
20260505123653 52 189 0.0 0.0 0.00 0.09 0.09 94 1014.7
20260505123150 52 174 0.0 0.9 0.00 0.09 0.09 94 1014.6
20260505122646 52 218 0.0 0.9 0.00 0.09 0.09 94 1014.8
20260505122143 52 178 0.0 1.7 0.00 0.09 0.09 94 1014.5
20260505121635 52 185 0.9 1.7 0.00 0.09 0.09 94 1014.6
20260505121132 52 213 0.0 3.5 0.00 0.09 0.09 94 1014.6
20260505120627 52 179 0.9 1.7 0.00 0.09 0.09 94 1014.5
20260505120123 52 184 0.9 1.7 0.00 0.09 0.09 94 1014.4
20260505115618 52 216 0.0 2.6 0.00 0.09 0.09 94 1014.4
20260505115116 51 170 0.9 0.9 0.00 0.09 0.09 94 1014.5
20260505114612 51 221 0.0 1.7 0.00 0.09 0.09 94 1014.7
20260505114109 51 178 0.0 1.7 0.00 0.09 0.09 94 1014.6
20260505113605 51 223 0.9 1.7 0.00 0.09 0.09 94 1014.5
20260505113102 51 159 0.0 0.9 0.00 0.09 0.09 95 1014.6
20260505112558 51 165 0.0 0.0 0.00 0.09 0.09 95 1014.7
20260505112056 51 170 0.0 0.0 0.00 0.09 0.09 95 1014.7
20260505111550 51 161 0.0 0.0 0.00 0.09 0.09 95 1014.8
20260505111046 51 179 0.0 0.9 0.00 0.09 0.09 95 1014.4
20260505110543 51 183 0.0 0.9 0.00 0.09 0.09 95 1014.6